Year,Month,Day,Hour,Minute,Value (Times are PST for temperature in C)
2010,06,26,00,00,11.10
2010,06,26,00,01,11.10
2010,06,26,00,02,11.10
2010,06,26,00,03,11.10
2010,06,26,00,04,11.10
2010,06,26,00,05,11.10
2010,06,26,00,06,11.10
2010,06,26,00,07,11.10
2010,06,26,00,08,11.10
2010,06,26,00,09,11.10
2010,06,26,00,10,11.10
2010,06,26,00,11,11.10
2010,06,26,00,12,11.10
2010,06,26,00,13,11.10
2010,06,26,00,14,11.10
2010,06,26,00,15,11.10
2010,06,26,00,16,11.10
2010,06,26,00,17,11.10
2010,06,26,00,18,11.10
2010,06,26,00,19,11.10
2010,06,26,00,20,11.10
2010,06,26,00,21,11.10
2010,06,26,00,22,11.10
2010,06,26,00,23,11.10
2010,06,26,00,24,11.10
2010,06,26,00,25,11.10
2010,06,26,00,26,11.10
2010,06,26,00,27,11.10
2010,06,26,00,28,11.10
2010,06,26,00,29,11.10
2010,06,26,00,30,11.10
2010,06,26,00,31,11.10
2010,06,26,00,32,11.10
2010,06,26,00,33,11.10
2010,06,26,00,34,11.10
2010,06,26,00,35,11.10
2010,06,26,00,36,11.10
2010,06,26,00,37,11.00
2010,06,26,00,38,11.00
2010,06,26,00,39,11.00
2010,06,26,00,40,11.00
2010,06,26,00,41,11.00
2010,06,26,00,42,11.00
2010,06,26,00,43,10.90
2010,06,26,00,44,10.90
2010,06,26,00,45,10.90
2010,06,26,00,46,10.90
2010,06,26,00,47,10.90
2010,06,26,00,48,10.90
2010,06,26,00,49,10.90
2010,06,26,00,50,10.90
2010,06,26,00,51,10.90
2010,06,26,00,52,10.90
2010,06,26,00,53,10.90
2010,06,26,00,54,10.90
2010,06,26,00,55,10.90
2010,06,26,00,56,10.90
2010,06,26,00,57,10.90
2010,06,26,00,58,10.90
2010,06,26,00,59,10.90
2010,06,26,01,00,10.90
2010,06,26,01,01,10.80
2010,06,26,01,02,10.80
2010,06,26,01,03,10.80
2010,06,26,01,04,10.80
2010,06,26,01,05,10.80
2010,06,26,01,06,10.80
2010,06,26,01,07,10.80
2010,06,26,01,08,10.80
2010,06,26,01,09,10.80
2010,06,26,01,10,10.80
2010,06,26,01,11,10.80
2010,06,26,01,12,10.80
2010,06,26,01,13,10.80
2010,06,26,01,14,10.70
2010,06,26,01,15,10.70
2010,06,26,01,16,10.70
2010,06,26,01,17,10.70
2010,06,26,01,18,10.70
2010,06,26,01,19,10.70
2010,06,26,01,20,10.70
2010,06,26,01,21,10.70
2010,06,26,01,22,10.70
2010,06,26,01,23,10.60
2010,06,26,01,24,10.60
2010,06,26,01,25,10.60
2010,06,26,01,26,10.60
2010,06,26,01,27,10.60
2010,06,26,01,28,10.60
2010,06,26,01,29,10.60
2010,06,26,01,30,10.60
2010,06,26,01,31,10.60
2010,06,26,01,32,10.60
2010,06,26,01,33,10.60
2010,06,26,01,34,10.60
2010,06,26,01,35,10.60
2010,06,26,01,36,10.60
2010,06,26,01,37,10.60
2010,06,26,01,38,10.60
2010,06,26,01,39,10.60
2010,06,26,01,40,10.60
2010,06,26,01,41,10.60
2010,06,26,01,42,10.50
2010,06,26,01,43,10.50
2010,06,26,01,44,10.50
2010,06,26,01,45,10.50
2010,06,26,01,46,10.50
2010,06,26,01,47,10.40
2010,06,26,01,48,10.40
2010,06,26,01,49,10.40
2010,06,26,01,50,10.40
2010,06,26,01,51,10.40
2010,06,26,01,52,10.40
2010,06,26,01,53,10.40
2010,06,26,01,54,10.40
2010,06,26,01,55,10.40
2010,06,26,01,56,10.40
2010,06,26,01,57,10.40
2010,06,26,01,58,10.40
2010,06,26,01,59,10.40
2010,06,26,02,00,10.30
2010,06,26,02,01,10.30
2010,06,26,02,02,10.30
2010,06,26,02,03,10.30
2010,06,26,02,04,10.30
2010,06,26,02,05,10.30
2010,06,26,02,06,10.30
2010,06,26,02,07,10.30
2010,06,26,02,08,10.30
2010,06,26,02,09,10.30
2010,06,26,02,10,10.30
2010,06,26,02,11,10.30
2010,06,26,02,12,10.30
2010,06,26,02,13,10.30
2010,06,26,02,14,10.30
2010,06,26,02,15,10.30
2010,06,26,02,16,10.30
2010,06,26,02,17,10.30
2010,06,26,02,18,10.30
2010,06,26,02,19,10.30
2010,06,26,02,20,10.30
2010,06,26,02,21,10.30
2010,06,26,02,22,10.30
2010,06,26,02,23,10.30
2010,06,26,02,24,10.30
2010,06,26,02,25,10.30
2010,06,26,02,26,10.30
2010,06,26,02,27,10.30
2010,06,26,02,28,10.30
2010,06,26,02,29,10.20
2010,06,26,02,30,10.20
2010,06,26,02,31,10.30
2010,06,26,02,32,10.30
2010,06,26,02,33,10.30
2010,06,26,02,34,10.30
2010,06,26,02,35,10.30
2010,06,26,02,36,10.30
2010,06,26,02,37,10.30
2010,06,26,02,38,10.20
2010,06,26,02,39,10.20
2010,06,26,02,40,10.20
2010,06,26,02,41,10.20
2010,06,26,02,42,10.10
2010,06,26,02,43,10.10
2010,06,26,02,44,10.10
2010,06,26,02,45,10.10
2010,06,26,02,46,10.10
2010,06,26,02,47,10.10
2010,06,26,02,48,10.10
2010,06,26,02,49,10.00
2010,06,26,02,50,10.00
2010,06,26,02,51,10.00
2010,06,26,02,52,9.90
2010,06,26,02,53,9.90
2010,06,26,02,54,9.90
2010,06,26,02,55,9.80
2010,06,26,02,56,9.80
2010,06,26,02,57,9.80
2010,06,26,02,58,9.80
2010,06,26,02,59,9.80
2010,06,26,03,00,9.80
2010,06,26,03,01,9.80
2010,06,26,03,02,9.80
2010,06,26,03,03,9.80
2010,06,26,03,04,9.80
2010,06,26,03,05,9.90
2010,06,26,03,06,9.90
2010,06,26,03,07,9.90
2010,06,26,03,08,9.90
2010,06,26,03,09,9.90
2010,06,26,03,10,9.90
2010,06,26,03,11,9.90
2010,06,26,03,12,9.90
2010,06,26,03,13,9.80
2010,06,26,03,14,9.80
2010,06,26,03,15,9.80
2010,06,26,03,16,9.80
2010,06,26,03,17,9.70
2010,06,26,03,18,9.70
2010,06,26,03,19,9.70
2010,06,26,03,20,9.70
2010,06,26,03,21,9.70
2010,06,26,03,22,9.70
2010,06,26,03,23,9.70
2010,06,26,03,24,9.60
2010,06,26,03,25,9.60
2010,06,26,03,26,9.70
2010,06,26,03,27,9.70
2010,06,26,03,28,9.60
2010,06,26,03,29,9.60
2010,06,26,03,30,9.60
2010,06,26,03,31,9.60
2010,06,26,03,32,9.60
2010,06,26,03,33,9.60
2010,06,26,03,34,9.60
2010,06,26,03,35,9.70
2010,06,26,03,36,9.70
2010,06,26,03,37,9.70
2010,06,26,03,38,9.70
2010,06,26,03,39,9.80
2010,06,26,03,40,9.80
2010,06,26,03,41,9.80
2010,06,26,03,42,9.80
2010,06,26,03,43,9.80
2010,06,26,03,44,9.80
2010,06,26,03,45,9.80
2010,06,26,03,46,9.80
2010,06,26,03,47,9.90
2010,06,26,03,48,9.90
2010,06,26,03,49,9.90
2010,06,26,03,50,9.90
2010,06,26,03,51,9.90
2010,06,26,03,52,9.90
2010,06,26,03,53,9.90
2010,06,26,03,54,9.90
2010,06,26,03,55,9.90
2010,06,26,03,56,9.90
2010,06,26,03,57,9.90
2010,06,26,03,58,9.90
2010,06,26,03,59,9.90
2010,06,26,04,00,9.90
2010,06,26,04,01,9.90
2010,06,26,04,02,9.90
2010,06,26,04,03,9.90
2010,06,26,04,04,9.90
2010,06,26,04,05,9.90
2010,06,26,04,06,9.90
2010,06,26,04,07,9.90
2010,06,26,04,08,9.90
2010,06,26,04,09,9.90
2010,06,26,04,10,9.80
2010,06,26,04,11,9.80
2010,06,26,04,12,9.80
2010,06,26,04,13,9.80
2010,06,26,04,14,9.80
2010,06,26,04,15,9.80
2010,06,26,04,16,9.80
2010,06,26,04,17,9.70
2010,06,26,04,18,9.80
2010,06,26,04,19,9.70
2010,06,26,04,20,9.70
2010,06,26,04,21,9.70
2010,06,26,04,22,9.70
2010,06,26,04,23,9.70
2010,06,26,04,24,9.70
2010,06,26,04,25,9.70
2010,06,26,04,26,9.70
2010,06,26,04,27,9.60
2010,06,26,04,28,9.60
2010,06,26,04,29,9.60
2010,06,26,04,30,9.60
2010,06,26,04,31,9.50
2010,06,26,04,32,9.50
2010,06,26,04,33,9.40
2010,06,26,04,34,9.40
2010,06,26,04,35,9.30
2010,06,26,04,36,9.30
2010,06,26,04,37,9.30
2010,06,26,04,38,9.20
2010,06,26,04,39,9.20
2010,06,26,04,40,9.20
2010,06,26,04,41,9.10
2010,06,26,04,42,9.10
2010,06,26,04,43,9.10
2010,06,26,04,44,9.10
2010,06,26,04,45,9.10
2010,06,26,04,46,9.10
2010,06,26,04,47,9.10
2010,06,26,04,48,9.10
2010,06,26,04,49,9.10
2010,06,26,04,50,9.00
2010,06,26,04,51,9.00
2010,06,26,04,52,9.00
2010,06,26,04,53,9.00
2010,06,26,04,54,9.00
2010,06,26,04,55,9.00
2010,06,26,04,56,9.00
2010,06,26,04,57,9.00
2010,06,26,04,58,9.00
2010,06,26,04,59,9.10
2010,06,26,05,00,9.10
2010,06,26,05,01,9.10
2010,06,26,05,02,9.10
2010,06,26,05,03,9.20
2010,06,26,05,04,9.20
2010,06,26,05,05,9.20
2010,06,26,05,06,9.30
2010,06,26,05,07,9.30
2010,06,26,05,08,9.30
2010,06,26,05,09,9.40
2010,06,26,05,10,9.40
2010,06,26,05,11,9.40
2010,06,26,05,12,9.40
2010,06,26,05,13,9.40
2010,06,26,05,14,9.40
2010,06,26,05,15,9.40
2010,06,26,05,16,9.40
2010,06,26,05,17,9.40
2010,06,26,05,18,9.40
2010,06,26,05,19,9.40
2010,06,26,05,20,9.40
2010,06,26,05,21,9.40
2010,06,26,05,22,9.30
2010,06,26,05,23,9.30
2010,06,26,05,24,9.30
2010,06,26,05,25,9.30
2010,06,26,05,26,9.30
2010,06,26,05,27,9.30
2010,06,26,05,28,9.30
2010,06,26,05,29,9.30
2010,06,26,05,30,9.30
2010,06,26,05,31,9.30
2010,06,26,05,32,9.30
2010,06,26,05,33,9.30
2010,06,26,05,34,9.30
2010,06,26,05,35,9.30
2010,06,26,05,36,9.30
2010,06,26,05,37,9.30
2010,06,26,05,38,9.30
2010,06,26,05,39,9.30
2010,06,26,05,40,9.30
2010,06,26,05,41,9.30
2010,06,26,05,42,9.30
2010,06,26,05,43,9.30
2010,06,26,05,44,9.30
2010,06,26,05,45,9.30
2010,06,26,05,46,9.30
2010,06,26,05,47,9.30
2010,06,26,05,48,9.30
2010,06,26,05,49,9.30
2010,06,26,05,50,9.30
2010,06,26,05,51,9.30
2010,06,26,05,52,9.30
2010,06,26,05,53,9.30
2010,06,26,05,54,9.30
2010,06,26,05,55,9.30
2010,06,26,05,56,9.30
2010,06,26,05,57,9.30
2010,06,26,05,58,9.30
2010,06,26,05,59,9.30
2010,06,26,06,00,9.30
2010,06,26,06,01,9.30
2010,06,26,06,02,9.30
2010,06,26,06,03,9.40
2010,06,26,06,04,9.40
2010,06,26,06,05,9.40
2010,06,26,06,06,9.40
2010,06,26,06,07,9.40
2010,06,26,06,08,9.50
2010,06,26,06,09,9.50
2010,06,26,06,10,9.50
2010,06,26,06,11,9.50
2010,06,26,06,12,9.60
2010,06,26,06,13,9.60
2010,06,26,06,14,9.60
2010,06,26,06,15,9.60
2010,06,26,06,16,9.70
2010,06,26,06,17,9.70
2010,06,26,06,18,9.70
2010,06,26,06,19,9.70
2010,06,26,06,20,9.70
2010,06,26,06,21,9.80
2010,06,26,06,22,9.80
2010,06,26,06,23,9.80
2010,06,26,06,24,9.90
2010,06,26,06,25,9.90
2010,06,26,06,26,10.00
2010,06,26,06,27,10.00
2010,06,26,06,28,10.00
2010,06,26,06,29,10.10
2010,06,26,06,30,10.10
2010,06,26,06,31,10.20
2010,06,26,06,32,10.20
2010,06,26,06,33,10.20
2010,06,26,06,34,10.30
2010,06,26,06,35,10.30
2010,06,26,06,36,10.30
2010,06,26,06,37,10.30
2010,06,26,06,38,10.40
2010,06,26,06,39,10.40
2010,06,26,06,40,10.40
2010,06,26,06,41,10.50
2010,06,26,06,42,10.50
2010,06,26,06,43,10.50
2010,06,26,06,44,10.60
2010,06,26,06,45,10.60
2010,06,26,06,46,10.70
2010,06,26,06,47,10.70
2010,06,26,06,48,10.80
2010,06,26,06,49,10.80
2010,06,26,06,50,10.90
2010,06,26,06,51,10.90
2010,06,26,06,52,11.00
2010,06,26,06,53,11.00
2010,06,26,06,54,11.00
2010,06,26,06,55,11.10
2010,06,26,06,56,11.10
2010,06,26,06,57,11.10
2010,06,26,06,58,11.10
2010,06,26,06,59,11.10
2010,06,26,07,00,11.10
2010,06,26,07,01,11.10
2010,06,26,07,02,11.10
2010,06,26,07,03,11.10
2010,06,26,07,04,11.10
2010,06,26,07,05,11.10
2010,06,26,07,06,11.10
2010,06,26,07,07,11.20
2010,06,26,07,08,11.20
2010,06,26,07,09,11.20
2010,06,26,07,10,11.20
2010,06,26,07,11,11.20
2010,06,26,07,12,11.20
2010,06,26,07,13,11.20
2010,06,26,07,14,11.20
2010,06,26,07,15,11.30
2010,06,26,07,16,11.30
2010,06,26,07,17,11.30
2010,06,26,07,18,11.30
2010,06,26,07,19,11.30
2010,06,26,07,20,11.30
2010,06,26,07,21,11.40
2010,06,26,07,22,11.40
2010,06,26,07,23,11.50
2010,06,26,07,24,11.50
2010,06,26,07,25,11.60
2010,06,26,07,26,11.70
2010,06,26,07,27,11.70
2010,06,26,07,28,11.80
2010,06,26,07,29,11.80
2010,06,26,07,30,11.80
2010,06,26,07,31,11.90
2010,06,26,07,32,11.90
2010,06,26,07,33,11.90
2010,06,26,07,34,12.00
2010,06,26,07,35,12.00
2010,06,26,07,36,12.00
2010,06,26,07,37,12.10
2010,06,26,07,38,12.10
2010,06,26,07,39,12.10
2010,06,26,07,40,12.10
2010,06,26,07,41,12.10
2010,06,26,07,42,12.10
2010,06,26,07,43,12.10
2010,06,26,07,44,12.10
2010,06,26,07,45,12.20
2010,06,26,07,46,12.20
2010,06,26,07,47,12.20
2010,06,26,07,48,12.20
2010,06,26,07,49,12.30
2010,06,26,07,50,12.30
2010,06,26,07,51,12.30
2010,06,26,07,52,12.30
2010,06,26,07,53,12.40
2010,06,26,07,54,12.40
2010,06,26,07,55,12.40
2010,06,26,07,56,12.50
2010,06,26,07,57,12.50
2010,06,26,07,58,12.50
2010,06,26,07,59,12.50
2010,06,26,08,00,12.50
2010,06,26,08,01,12.60
2010,06,26,08,02,12.60
2010,06,26,08,03,12.60
2010,06,26,08,04,12.70
2010,06,26,08,05,12.70
2010,06,26,08,06,12.70
2010,06,26,08,07,12.60
2010,06,26,08,08,12.60
2010,06,26,08,09,12.60
2010,06,26,08,10,12.70
2010,06,26,08,11,12.70
2010,06,26,08,12,12.70
2010,06,26,08,13,12.80
2010,06,26,08,14,12.80
2010,06,26,08,15,12.80
2010,06,26,08,16,12.90
2010,06,26,08,17,12.90
2010,06,26,08,18,12.90
2010,06,26,08,19,12.90
2010,06,26,08,20,13.00
2010,06,26,08,21,13.10
2010,06,26,08,22,13.20
2010,06,26,08,23,13.20
2010,06,26,08,24,13.30
2010,06,26,08,25,13.30
2010,06,26,08,26,13.40
2010,06,26,08,27,13.40
2010,06,26,08,28,13.50
2010,06,26,08,29,13.60
2010,06,26,08,30,13.70
2010,06,26,08,31,13.70
2010,06,26,08,32,13.70
2010,06,26,08,33,13.70
2010,06,26,08,34,13.80
2010,06,26,08,35,13.70
2010,06,26,08,36,13.70
2010,06,26,08,37,13.70
2010,06,26,08,38,13.70
2010,06,26,08,39,13.80
2010,06,26,08,40,13.80
2010,06,26,08,41,13.80
2010,06,26,08,42,13.80
2010,06,26,08,43,13.90
2010,06,26,08,44,13.90
2010,06,26,08,45,14.00
2010,06,26,08,46,14.00
2010,06,26,08,47,14.00
2010,06,26,08,48,14.00
2010,06,26,08,49,13.90
2010,06,26,08,50,13.90
2010,06,26,08,51,13.90
2010,06,26,08,52,13.90
2010,06,26,08,53,13.90
2010,06,26,08,54,13.90
2010,06,26,08,55,13.90
2010,06,26,08,56,13.80
2010,06,26,08,57,13.90
2010,06,26,08,58,13.90
2010,06,26,08,59,13.90
2010,06,26,09,00,14.00
2010,06,26,09,01,14.00
2010,06,26,09,02,14.00
2010,06,26,09,03,14.00
2010,06,26,09,04,14.00
2010,06,26,09,05,14.00
2010,06,26,09,06,14.00
2010,06,26,09,07,14.00
2010,06,26,09,08,14.00
2010,06,26,09,09,14.00
2010,06,26,09,10,14.00
2010,06,26,09,11,14.00
2010,06,26,09,12,14.00
2010,06,26,09,13,14.10
2010,06,26,09,14,14.30
2010,06,26,09,15,14.30
2010,06,26,09,16,14.40
2010,06,26,09,17,14.40
2010,06,26,09,18,14.40
2010,06,26,09,19,14.40
2010,06,26,09,20,14.40
2010,06,26,09,21,14.40
2010,06,26,09,22,14.40
2010,06,26,09,23,14.40
2010,06,26,09,24,14.40
2010,06,26,09,25,14.50
2010,06,26,09,26,14.60
2010,06,26,09,27,14.70
2010,06,26,09,28,14.70
2010,06,26,09,29,14.70
2010,06,26,09,30,14.70
2010,06,26,09,31,14.70
2010,06,26,09,32,14.70
2010,06,26,09,33,14.70
2010,06,26,09,34,14.80
2010,06,26,09,35,14.90
2010,06,26,09,36,15.00
2010,06,26,09,37,15.00
2010,06,26,09,38,15.00
2010,06,26,09,39,15.00
2010,06,26,09,40,15.00
2010,06,26,09,41,15.00
2010,06,26,09,42,15.10
2010,06,26,09,43,15.10
2010,06,26,09,44,15.10
2010,06,26,09,45,15.20
2010,06,26,09,46,15.20
2010,06,26,09,47,15.30
2010,06,26,09,48,15.30
2010,06,26,09,49,15.30
2010,06,26,09,50,15.30
2010,06,26,09,51,15.20
2010,06,26,09,52,15.20
2010,06,26,09,53,15.10
2010,06,26,09,54,15.20
2010,06,26,09,55,15.20
2010,06,26,09,56,15.20
2010,06,26,09,57,15.00
2010,06,26,09,58,15.00
2010,06,26,09,59,15.00
2010,06,26,10,00,15.00
2010,06,26,10,01,15.00
2010,06,26,10,02,15.00
2010,06,26,10,03,15.00
2010,06,26,10,04,15.00
2010,06,26,10,05,15.00
2010,06,26,10,06,15.00
2010,06,26,10,07,15.10
2010,06,26,10,08,15.10
2010,06,26,10,09,15.20
2010,06,26,10,10,15.30
2010,06,26,10,11,15.10
2010,06,26,10,12,15.00
2010,06,26,10,13,15.00
2010,06,26,10,14,15.00
2010,06,26,10,15,15.00
2010,06,26,10,16,15.00
2010,06,26,10,17,15.00
2010,06,26,10,18,15.10
2010,06,26,10,19,15.20
2010,06,26,10,20,15.30
2010,06,26,10,21,15.50
2010,06,26,10,22,15.50
2010,06,26,10,23,15.40
2010,06,26,10,24,15.20
2010,06,26,10,25,15.30
2010,06,26,10,26,15.30
2010,06,26,10,27,15.20
2010,06,26,10,28,15.10
2010,06,26,10,29,15.10
2010,06,26,10,30,15.10
2010,06,26,10,31,15.20
2010,06,26,10,32,15.20
2010,06,26,10,33,15.30
2010,06,26,10,34,15.30
2010,06,26,10,35,15.30
2010,06,26,10,36,15.40
2010,06,26,10,37,15.40
2010,06,26,10,38,15.40
2010,06,26,10,39,15.50
2010,06,26,10,40,15.50
2010,06,26,10,41,15.50
2010,06,26,10,42,15.50
2010,06,26,10,43,15.50
2010,06,26,10,44,15.50
2010,06,26,10,45,15.50
2010,06,26,10,46,15.40
2010,06,26,10,47,15.40
2010,06,26,10,48,15.50
2010,06,26,10,49,15.40
2010,06,26,10,50,15.50
2010,06,26,10,51,15.50
2010,06,26,10,52,15.50
2010,06,26,10,53,15.50
2010,06,26,10,54,15.40
2010,06,26,10,55,15.40
2010,06,26,10,56,15.30
2010,06,26,10,57,15.30
2010,06,26,10,58,15.40
2010,06,26,10,59,15.50
2010,06,26,11,00,15.60
2010,06,26,11,01,15.70
2010,06,26,11,02,15.70
2010,06,26,11,03,15.80
2010,06,26,11,04,15.90
2010,06,26,11,05,15.90
2010,06,26,11,06,15.90
2010,06,26,11,07,15.90
2010,06,26,11,08,15.80
2010,06,26,11,09,15.80
2010,06,26,11,10,15.80
2010,06,26,11,11,15.90
2010,06,26,11,12,15.90
2010,06,26,11,13,16.00
2010,06,26,11,14,15.90
2010,06,26,11,15,15.90
2010,06,26,11,16,15.80
2010,06,26,11,17,15.80
2010,06,26,11,18,15.80
2010,06,26,11,19,15.90
2010,06,26,11,20,15.90
2010,06,26,11,21,16.00
2010,06,26,11,22,16.00
2010,06,26,11,23,16.00
2010,06,26,11,24,16.00
2010,06,26,11,25,16.00
2010,06,26,11,26,16.00
2010,06,26,11,27,16.00
2010,06,26,11,28,15.90
2010,06,26,11,29,15.90
2010,06,26,11,30,16.00
2010,06,26,11,31,16.00
2010,06,26,11,32,16.10
2010,06,26,11,33,16.10
2010,06,26,11,34,16.20
2010,06,26,11,35,16.20
2010,06,26,11,36,16.20
2010,06,26,11,37,16.30
2010,06,26,11,38,16.30
2010,06,26,11,39,16.30
2010,06,26,11,40,16.30
2010,06,26,11,41,16.40
2010,06,26,11,42,16.30
2010,06,26,11,43,16.30
2010,06,26,11,44,16.40
2010,06,26,11,45,16.40
2010,06,26,11,46,16.50
2010,06,26,11,47,16.50
2010,06,26,11,48,16.60
2010,06,26,11,49,16.70
2010,06,26,11,50,16.80
2010,06,26,11,51,16.70
2010,06,26,11,52,16.70
2010,06,26,11,53,16.70
2010,06,26,11,54,16.70
2010,06,26,11,55,16.70
2010,06,26,11,56,16.70
2010,06,26,11,57,16.60
2010,06,26,11,58,16.70
2010,06,26,11,59,16.70
2010,06,26,12,00,16.80
2010,06,26,12,01,16.90
2010,06,26,12,02,16.90
2010,06,26,12,03,16.90
2010,06,26,12,04,16.90
2010,06,26,12,05,16.80
2010,06,26,12,06,16.80
2010,06,26,12,07,16.70
2010,06,26,12,08,16.80
2010,06,26,12,09,16.80
2010,06,26,12,10,16.80
2010,06,26,12,11,16.80
2010,06,26,12,12,16.90
2010,06,26,12,13,17.00
2010,06,26,12,14,17.00
2010,06,26,12,15,17.00
2010,06,26,12,16,17.10
2010,06,26,12,17,17.20
2010,06,26,12,18,17.10
2010,06,26,12,19,17.00
2010,06,26,12,20,16.90
2010,06,26,12,21,16.80
2010,06,26,12,22,16.80
2010,06,26,12,23,16.80
2010,06,26,12,24,16.90
2010,06,26,12,25,17.00
2010,06,26,12,26,16.90
2010,06,26,12,27,16.90
2010,06,26,12,28,16.90
2010,06,26,12,29,16.90
2010,06,26,12,30,17.00
2010,06,26,12,31,17.00
2010,06,26,12,32,17.10
2010,06,26,12,33,17.10
2010,06,26,12,34,17.20
2010,06,26,12,35,17.30
2010,06,26,12,36,17.30
2010,06,26,12,37,17.30
2010,06,26,12,38,17.30
2010,06,26,12,39,17.30
2010,06,26,12,40,17.30
2010,06,26,12,41,17.40
2010,06,26,12,42,17.40
2010,06,26,12,43,17.40
2010,06,26,12,44,17.50
2010,06,26,12,45,17.40
2010,06,26,12,46,17.40
2010,06,26,12,47,17.40
2010,06,26,12,48,17.50
2010,06,26,12,49,17.60
2010,06,26,12,50,17.60
2010,06,26,12,51,17.50
2010,06,26,12,52,17.40
2010,06,26,12,53,17.50
2010,06,26,12,54,17.60
2010,06,26,12,55,17.80
2010,06,26,12,56,17.80
2010,06,26,12,57,17.80
2010,06,26,12,58,17.80
2010,06,26,12,59,17.70
2010,06,26,13,00,17.80
2010,06,26,13,01,17.80
2010,06,26,13,02,17.80
2010,06,26,13,03,17.70
2010,06,26,13,04,17.70
2010,06,26,13,05,17.70
2010,06,26,13,06,17.60
2010,06,26,13,07,17.60
2010,06,26,13,08,17.70
2010,06,26,13,09,17.70
2010,06,26,13,10,17.80
2010,06,26,13,11,17.80
2010,06,26,13,12,17.80
2010,06,26,13,13,17.90
2010,06,26,13,14,17.90
2010,06,26,13,15,17.90
2010,06,26,13,16,17.90
2010,06,26,13,17,18.00
2010,06,26,13,18,17.90
2010,06,26,13,19,17.90
2010,06,26,13,20,18.00
2010,06,26,13,21,18.00
2010,06,26,13,22,18.10
2010,06,26,13,23,18.10
2010,06,26,13,24,18.10
2010,06,26,13,25,18.10
2010,06,26,13,26,18.10
2010,06,26,13,27,18.10
2010,06,26,13,28,18.10
2010,06,26,13,29,18.10
2010,06,26,13,30,18.10
2010,06,26,13,31,18.10
2010,06,26,13,32,18.20
2010,06,26,13,33,18.30
2010,06,26,13,34,18.50
2010,06,26,13,35,18.60
2010,06,26,13,36,18.70
2010,06,26,13,37,18.80
2010,06,26,13,38,18.80
2010,06,26,13,39,18.80
2010,06,26,13,40,18.70
2010,06,26,13,41,18.60
2010,06,26,13,42,18.60
2010,06,26,13,43,18.70
2010,06,26,13,44,18.80
2010,06,26,13,45,18.80
2010,06,26,13,46,18.90
2010,06,26,13,47,18.90
2010,06,26,13,48,18.90
2010,06,26,13,49,18.90
2010,06,26,13,50,18.90
2010,06,26,13,51,18.80
2010,06,26,13,52,18.80
2010,06,26,13,53,18.70
2010,06,26,13,54,18.70
2010,06,26,13,55,18.70
2010,06,26,13,56,18.70
2010,06,26,13,57,18.60
2010,06,26,13,58,18.60
2010,06,26,13,59,18.70
2010,06,26,14,00,18.70
2010,06,26,14,01,18.80
2010,06,26,14,02,18.70
2010,06,26,14,03,18.70
2010,06,26,14,04,18.70
2010,06,26,14,05,18.80
2010,06,26,14,06,18.80
2010,06,26,14,07,18.80
2010,06,26,14,08,18.80
2010,06,26,14,09,18.70
2010,06,26,14,10,18.60
2010,06,26,14,11,18.70
2010,06,26,14,12,18.80
2010,06,26,14,13,18.80
2010,06,26,14,14,18.80
2010,06,26,14,15,18.80
2010,06,26,14,16,18.90
2010,06,26,14,17,19.00
2010,06,26,14,18,19.10
2010,06,26,14,19,19.20
2010,06,26,14,20,19.20
2010,06,26,14,21,19.20
2010,06,26,14,22,19.10
2010,06,26,14,23,19.10
2010,06,26,14,24,19.10
2010,06,26,14,25,19.10
2010,06,26,14,26,19.20
2010,06,26,14,27,19.40
2010,06,26,14,28,19.50
2010,06,26,14,29,19.70
2010,06,26,14,30,19.60
2010,06,26,14,31,19.50
2010,06,26,14,32,19.50
2010,06,26,14,33,19.50
2010,06,26,14,34,19.60
2010,06,26,14,35,19.70
2010,06,26,14,36,19.70
2010,06,26,14,37,19.70
2010,06,26,14,38,19.70
2010,06,26,14,39,19.70
2010,06,26,14,40,19.70
2010,06,26,14,41,19.60
2010,06,26,14,42,19.70
2010,06,26,14,43,19.70
2010,06,26,14,44,19.70
2010,06,26,14,45,19.70
2010,06,26,14,46,19.70
2010,06,26,14,47,19.60
2010,06,26,14,48,19.50
2010,06,26,14,49,19.40
2010,06,26,14,50,19.40
2010,06,26,14,51,19.30
2010,06,26,14,52,19.30
2010,06,26,14,53,19.40
2010,06,26,14,54,19.50
2010,06,26,14,55,19.60
2010,06,26,14,56,19.70
2010,06,26,14,57,19.70
2010,06,26,14,58,19.70
2010,06,26,14,59,19.70
2010,06,26,15,00,19.80
2010,06,26,15,01,19.80
2010,06,26,15,02,19.80
2010,06,26,15,03,19.80
2010,06,26,15,04,19.90
2010,06,26,15,05,19.90
2010,06,26,15,06,20.00
2010,06,26,15,07,20.00
2010,06,26,15,08,20.10
2010,06,26,15,09,20.00
2010,06,26,15,10,19.90
2010,06,26,15,11,19.80
2010,06,26,15,12,19.70
2010,06,26,15,13,19.80
2010,06,26,15,14,19.90
2010,06,26,15,15,19.90
2010,06,26,15,16,20.00
2010,06,26,15,17,20.30
2010,06,26,15,18,20.60
2010,06,26,15,19,20.80
2010,06,26,15,20,20.80
2010,06,26,15,21,20.70
2010,06,26,15,22,20.60
2010,06,26,15,23,20.40
2010,06,26,15,24,20.30
2010,06,26,15,25,20.20
2010,06,26,15,26,20.10
2010,06,26,15,27,20.00
2010,06,26,15,28,20.10
2010,06,26,15,29,20.10
2010,06,26,15,30,20.30
2010,06,26,15,31,20.30
2010,06,26,15,32,20.30
2010,06,26,15,33,20.40
2010,06,26,15,34,20.40
2010,06,26,15,35,20.50
2010,06,26,15,36,20.50
2010,06,26,15,37,20.80
2010,06,26,15,38,20.80
2010,06,26,15,39,20.70
2010,06,26,15,40,20.60
2010,06,26,15,41,20.60
2010,06,26,15,42,20.60
2010,06,26,15,43,20.60
2010,06,26,15,44,20.50
2010,06,26,15,45,20.50
2010,06,26,15,46,20.50
2010,06,26,15,47,20.50
2010,06,26,15,48,20.40
2010,06,26,15,49,20.50
2010,06,26,15,50,20.40
2010,06,26,15,51,20.50
2010,06,26,15,52,20.50
2010,06,26,15,53,20.60
2010,06,26,15,54,20.70
2010,06,26,15,55,20.80
2010,06,26,15,56,20.80
2010,06,26,15,57,20.80
2010,06,26,15,58,20.90
2010,06,26,15,59,20.90
2010,06,26,16,00,21.00
2010,06,26,16,01,21.10
2010,06,26,16,02,21.20
2010,06,26,16,03,21.30
2010,06,26,16,04,21.30
2010,06,26,16,05,21.30
2010,06,26,16,06,21.30
2010,06,26,16,07,21.20
2010,06,26,16,08,21.00
2010,06,26,16,09,20.80
2010,06,26,16,10,20.70
2010,06,26,16,11,20.80
2010,06,26,16,12,20.80
2010,06,26,16,13,21.00
2010,06,26,16,14,21.10
2010,06,26,16,15,21.20
2010,06,26,16,16,21.40
2010,06,26,16,17,21.50
2010,06,26,16,18,21.70
2010,06,26,16,19,21.70
2010,06,26,16,20,21.80
2010,06,26,16,21,21.70
2010,06,26,16,22,21.70
2010,06,26,16,23,21.80
2010,06,26,16,24,21.80
2010,06,26,16,25,21.80
2010,06,26,16,26,21.80
2010,06,26,16,27,21.70
2010,06,26,16,28,21.70
2010,06,26,16,29,21.60
2010,06,26,16,30,21.40
2010,06,26,16,31,21.30
2010,06,26,16,32,21.20
2010,06,26,16,33,21.10
2010,06,26,16,34,21.10
2010,06,26,16,35,21.10
2010,06,26,16,36,21.10
2010,06,26,16,37,21.10
2010,06,26,16,38,21.10
2010,06,26,16,39,21.10
2010,06,26,16,40,20.90
2010,06,26,16,41,20.80
2010,06,26,16,42,20.60
2010,06,26,16,43,20.50
2010,06,26,16,44,20.50
2010,06,26,16,45,20.40
2010,06,26,16,46,20.30
2010,06,26,16,47,20.10
2010,06,26,16,48,20.10
2010,06,26,16,49,20.00
2010,06,26,16,50,20.00
2010,06,26,16,51,20.00
2010,06,26,16,52,20.00
2010,06,26,16,53,20.10
2010,06,26,16,54,20.20
2010,06,26,16,55,20.20
2010,06,26,16,56,20.30
2010,06,26,16,57,20.40
2010,06,26,16,58,20.40
2010,06,26,16,59,20.40
2010,06,26,17,00,20.40
2010,06,26,17,01,20.30
2010,06,26,17,02,20.20
2010,06,26,17,03,20.00
2010,06,26,17,04,19.90
2010,06,26,17,05,19.90
2010,06,26,17,06,19.90
2010,06,26,17,07,19.90
2010,06,26,17,08,19.80
2010,06,26,17,09,19.80
2010,06,26,17,10,19.90
2010,06,26,17,11,19.90
2010,06,26,17,12,20.00
2010,06,26,17,13,20.10
2010,06,26,17,14,20.10
2010,06,26,17,15,20.20
2010,06,26,17,16,20.20
2010,06,26,17,17,20.30
2010,06,26,17,18,20.40
2010,06,26,17,19,20.30
2010,06,26,17,20,20.20
2010,06,26,17,21,20.20
2010,06,26,17,22,20.10
2010,06,26,17,23,20.10
2010,06,26,17,24,20.10
2010,06,26,17,25,20.10
2010,06,26,17,26,20.00
2010,06,26,17,27,19.80
2010,06,26,17,28,19.80